TimeCST,TemperatureF,Dew PointF,Humidity,Sea Level PressureIn,VisibilityMPH,Wind Direction,Wind SpeedMPH,Gust SpeedMPH,PrecipitationIn,Events,Conditions,WindDirDegrees,DateUTC
12:15 AM,5.9,-3.6,65,30.67,10.0,SSW,3.5,-,N/A,,Clear,200,2014-01-24 06:15:00
12:35 AM,5.2,-3.6,67,30.66,10.0,Calm,Calm,-,N/A,,Clear,0,2014-01-24 06:35:00
12:55 AM,4.6,-3.5,69,30.65,10.0,South,3.5,-,N/A,,Clear,190,2014-01-24 06:55:00
1:15 AM,3.9,-4.0,70,30.64,10.0,South,5.8,-,N/A,,Clear,170,2014-01-24 07:15:00
1:35 AM,3.6,-4.0,71,30.63,10.0,South,5.8,-,N/A,,Clear,170,2014-01-24 07:35:00
1:55 AM,3.4,-3.6,73,30.62,10.0,SSW,4.6,-,N/A,,Clear,200,2014-01-24 07:55:00
2:15 AM,4.6,-3.5,69,30.62,10.0,SSW,4.6,-,N/A,,Clear,200,2014-01-24 08:15:00
2:35 AM,5.0,-4.0,66,30.61,10.0,SSW,4.6,-,N/A,,Clear,210,2014-01-24 08:35:00
2:55 AM,5.2,-4.0,66,30.60,10.0,South,4.6,-,N/A,,Clear,190,2014-01-24 08:55:00
3:15 AM,5.0,-3.8,67,30.59,10.0,SSW,4.6,-,N/A,,Clear,200,2014-01-24 09:15:00
3:35 AM,5.0,-4.0,66,30.58,10.0,SSW,4.6,-,N/A,,Clear,210,2014-01-24 09:35:00
3:55 AM,5.4,-4.0,65,30.57,10.0,SSW,4.6,-,N/A,,Clear,200,2014-01-24 09:55:00
4:15 AM,5.7,-3.5,66,30.55,10.0,SSW,5.8,-,N/A,,Clear,200,2014-01-24 10:15:00
4:35 AM,6.6,-2.7,66,30.54,10.0,SSW,9.2,-,N/A,,Clear,210,2014-01-24 10:35:00
4:55 AM,7.9,-2.2,64,30.53,10.0,SSW,11.5,16.1,N/A,,Clear,210,2014-01-24 10:55:00
5:15 AM,8.6,-2.2,62,30.51,10.0,SW,10.4,17.3,N/A,,Clear,220,2014-01-24 11:15:00
5:35 AM,9.0,-2.2,61,30.49,10.0,SSW,11.5,17.3,N/A,,Clear,210,2014-01-24 11:35:00
5:55 AM,9.1,-2.2,60,30.48,10.0,SSW,10.4,18.4,N/A,,Clear,210,2014-01-24 11:55:00
6:15 AM,9.1,-2.2,60,30.47,10.0,SSW,10.4,-,N/A,,Clear,210,2014-01-24 12:15:00
6:35 AM,9.3,-2.2,60,30.45,10.0,SSW,9.2,-,N/A,,Clear,210,2014-01-24 12:35:00
6:55 AM,9.3,-2.0,60,30.44,10.0,SSW,8.1,-,N/A,,Clear,200,2014-01-24 12:55:00
7:15 AM,9.5,-2.0,60,30.43,10.0,SSW,5.8,-,N/A,,Clear,200,2014-01-24 13:15:00
7:35 AM,9.7,-1.8,60,30.42,10.0,SSW,8.1,-,N/A,,Clear,200,2014-01-24 13:35:00
7:55 AM,10.6,-1.7,58,30.41,10.0,SSW,9.2,-,N/A,,Clear,200,2014-01-24 13:55:00
8:15 AM,12.4,-1.5,54,30.40,10.0,SSW,15.0,19.6,N/A,,Clear,210,2014-01-24 14:15:00
8:35 AM,13.8,-2.0,49,30.40,10.0,SW,13.8,21.9,N/A,,Clear,220,2014-01-24 14:35:00
8:55 AM,14.7,-1.5,49,30.38,10.0,SSW,13.8,21.9,N/A,,Clear,210,2014-01-24 14:55:00
9:15 AM,15.8,-1.5,47,30.37,10.0,SW,12.7,20.7,N/A,,Clear,220,2014-01-24 15:15:00
9:35 AM,17.4,-1.3,44,30.36,10.0,SSW,12.7,20.7,N/A,,Clear,210,2014-01-24 15:35:00
9:55 AM,19.0,-2.6,39,30.34,10.0,SSW,13.8,26.5,N/A,,Clear,210,2014-01-24 15:55:00
10:15 AM,21.6,-3.5,33,30.33,10.0,SW,15.0,25.3,N/A,,Clear,220,2014-01-24 16:15:00
10:35 AM,24.1,-5.1,28,30.31,10.0,SW,20.7,28.8,N/A,,Clear,220,2014-01-24 16:35:00
10:55 AM,25.3,-6.3,25,30.29,10.0,SSW,17.3,31.1,N/A,,Clear,210,2014-01-24 16:55:00
11:15 AM,25.5,-7.1,24,30.28,10.0,SSW,20.7,28.8,N/A,,Clear,210,2014-01-24 17:15:00
11:35 AM,26.6,-5.6,25,30.25,10.0,SW,16.1,28.8,N/A,,Clear,220,2014-01-24 17:35:00
11:55 AM,27.7,-4.9,24,30.22,10.0,SSW,19.6,26.5,N/A,,Clear,210,2014-01-24 17:55:00
12:15 PM,28.8,-4.5,24,30.19,10.0,SSW,17.3,27.6,N/A,,Clear,210,2014-01-24 18:15:00
12:35 PM,30.4,-3.8,23,30.16,10.0,SSW,20.7,29.9,N/A,,Clear,210,2014-01-24 18:35:00
12:55 PM,31.1,-3.3,23,30.13,10.0,SSW,17.3,24.2,N/A,,Clear,210,2014-01-24 18:55:00
1:15 PM,30.9,-2.2,24,30.10,10.0,SSW,21.9,28.8,N/A,,Clear,200,2014-01-24 19:15:00
1:35 PM,31.5,-1.5,24,30.06,10.0,SSW,20.7,31.1,N/A,,Clear,210,2014-01-24 19:35:00
1:55 PM,32.4,-0.8,24,30.04,10.0,SSW,20.7,32.2,N/A,,Clear,210,2014-01-24 19:55:00
2:15 PM,33.6,0.7,25,30.03,10.0,SSW,19.6,33.4,N/A,,Clear,210,2014-01-24 20:15:00
2:35 PM,34.7,1.6,25,30.01,10.0,SW,20.7,32.2,N/A,,Clear,220,2014-01-24 20:35:00
2:55 PM,35.6,1.9,24,30.00,10.0,SW,19.6,29.9,N/A,,Clear,220,2014-01-24 20:55:00
3:15 PM,36.0,2.5,24,29.99,10.0,SW,16.1,29.9,N/A,,Clear,220,2014-01-24 21:15:00
3:35 PM,36.3,3.0,25,29.98,10.0,SW,13.8,26.5,N/A,,Clear,220,2014-01-24 21:35:00
3:55 PM,36.5,3.2,25,29.97,10.0,SW,17.3,29.9,N/A,,Clear,220,2014-01-24 21:55:00
4:15 PM,36.3,3.0,25,29.98,10.0,SW,19.6,28.8,N/A,,Clear,230,2014-01-24 22:15:00
4:35 PM,35.8,3.6,26,29.97,10.0,SW,17.3,27.6,N/A,,Scattered Clouds,230,2014-01-24 22:35:00
4:55 PM,35.4,3.9,27,29.96,10.0,WSW,15.0,27.6,N/A,,Mostly Cloudy,240,2014-01-24 22:55:00
5:15 PM,35.1,4.5,28,29.96,10.0,SW,13.8,27.6,N/A,,Mostly Cloudy,230,2014-01-24 23:15:00
5:35 PM,34.9,4.8,28,29.95,10.0,SW,17.3,24.2,N/A,,Overcast,230,2014-01-24 23:35:00
5:55 PM,34.7,5.0,29,29.95,10.0,SW,15.0,27.6,N/A,,Overcast,220,2014-01-24 23:55:00
6:15 PM,34.7,5.0,29,29.94,10.0,SW,17.3,27.6,N/A,,Overcast,220,2014-01-25 00:15:00
6:35 PM,34.9,4.8,28,29.94,10.0,SW,18.4,28.8,N/A,,Overcast,230,2014-01-25 00:35:00
6:55 PM,34.9,5.0,29,29.92,10.0,SW,17.3,27.6,N/A,,Overcast,220,2014-01-25 00:55:00
7:15 PM,35.1,5.2,29,29.91,10.0,SW,17.3,27.6,N/A,,Overcast,220,2014-01-25 01:15:00
7:35 PM,35.1,5.4,29,29.89,10.0,SW,17.3,26.5,N/A,,Overcast,220,2014-01-25 01:35:00
7:55 PM,35.4,5.5,29,29.87,10.0,SW,12.7,26.5,N/A,,Mostly Cloudy,220,2014-01-25 01:55:00
8:15 PM,35.8,5.7,28,29.86,10.0,SW,16.1,21.9,N/A,,Overcast,220,2014-01-25 02:15:00
8:35 PM,36.5,6.1,28,29.84,10.0,SW,19.6,31.1,N/A,,Overcast,220,2014-01-25 02:35:00
8:55 PM,36.9,6.6,28,29.82,10.0,SW,19.6,27.6,N/A,,Overcast,220,2014-01-25 02:55:00
9:15 PM,37.4,7.3,29,29.81,10.0,SW,17.3,29.9,N/A,,Overcast,220,2014-01-25 03:15:00
9:35 PM,38.1,8.1,29,29.80,10.0,SW,17.3,25.3,N/A,,Overcast,220,2014-01-25 03:35:00
9:55 PM,38.3,8.6,29,29.80,10.0,SW,19.6,27.6,N/A,,Overcast,230,2014-01-25 03:55:00
10:15 PM,38.7,9.1,30,29.79,10.0,SW,16.1,31.1,N/A,,Overcast,220,2014-01-25 04:15:00
10:35 PM,38.7,9.5,30,29.77,10.0,SW,24.2,32.2,N/A,,Overcast,230,2014-01-25 04:35:00
10:55 PM,38.8,9.9,30,29.75,10.0,SW,18.4,33.4,N/A,,Overcast,220,2014-01-25 04:55:00
11:15 PM,38.7,10.9,32,29.75,10.0,SW,11.5,23.0,N/A,,Overcast,220,2014-01-25 05:15:00
11:35 PM,38.8,11.8,33,29.75,10.0,SW,12.7,25.3,N/A,,Overcast,230,2014-01-25 05:35:00
11:55 PM,39.2,12.4,33,29.73,10.0,SW,13.8,25.3,N/A,,Overcast,230,2014-01-25 05:55:00